Akeeva — WDE7272 — position and weather

sailwx.info

Track history (hours):
 
Tides and Currents Weather Stations Pressure Air Temp Water Temp Dewpoint Dewpoint Depression Visibility Wind Speed Wind Dir Waves Ship Positions

Akeeva

More information available from US FCC via Universal Licensing System and Coast Guard Vessel Documentation Center.

Last reported at 2014-Aug-30 22:26 UTC. Time now 2014-Sep-02 21:38 UTC.
Position N 47°41' W 122°24'.

Length 16 m.

Type: Pleasure craft. MMSI: 367391170.

Date/timePositionNaut miles runAvg speedWind from/ knotsBaromVisibWave heightAir tempDewpointWater temp
2014-Aug-30 22:26N 47°41' W 122°24'0 0.0
2014-Aug-30 20:20N 47°41' W 122°24'0 0.0
2014-Aug-30 19:26N 47°41' W 122°24'0 0.0
2014-Aug-30 18:32N 47°41' W 122°24'0 0.0
2014-Aug-30 17:23N 47°41' W 122°24'0 0.0
2014-Aug-30 04:21N 47°41' W 122°24'0 0.0
2014-Aug-30 03:33N 47°41' W 122°24'  
2014-Aug-27 00:09N 47°41' W 122°24'0 0.4
2014-Aug-26 23:29N 47°41' W 122°24'8 9.1
2014-Aug-26 22:33N 47°49' W 122°28'47 9.3
2014-Aug-26 17:31N 48°28' W 123°06'9 8.4
2014-Aug-26 16:30N 48°37' W 123°10'0 0.0
2014-Aug-26 15:12N 48°37' W 123°10'  
2014-Aug-23 22:33N 48°37' W 123°10'1 1.2
2014-Aug-23 21:33N 48°35' W 123°10'1 1.4
2014-Aug-23 20:32N 48°37' W 123°09'15 0.3
2014-Aug-21 18:27N 48°43' W 123°30'6 6.2
2014-Aug-21 17:26N 48°49' W 123°34'  
Track history (hours):
 
Tides and Currents Weather Stations Pressure Air Temp Water Temp Dewpoint Dewpoint Depression Visibility Wind Speed Wind Dir Waves Ship Positions

Akeeva

More information available from US FCC via Universal Licensing System and Coast Guard Vessel Documentation Center.

Last reported at 2014-Aug-30 22:26 UTC. Time now 2014-Sep-02 21:38 UTC.
Position N 47°41' W 122°24'.

Length 16 m.

Type: Pleasure craft. MMSI: 367391170.

Date/timePositionNaut miles runAvg speedWind from/ knotsBaromVisibWave heightAir tempDewpointWater temp
2014-Aug-30 22:26N 47°41' W 122°24'0 0.0
2014-Aug-30 20:20N 47°41' W 122°24'0 0.0
2014-Aug-30 19:26N 47°41' W 122°24'0 0.0
2014-Aug-30 18:32N 47°41' W 122°24'0 0.0
2014-Aug-30 17:23N 47°41' W 122°24'0 0.0
2014-Aug-30 04:21N 47°41' W 122°24'0 0.0
2014-Aug-30 03:33N 47°41' W 122°24'  
2014-Aug-27 00:09N 47°41' W 122°24'0 0.4
2014-Aug-26 23:29N 47°41' W 122°24'8 9.1
2014-Aug-26 22:33N 47°49' W 122°28'47 9.3
2014-Aug-26 17:31N 48°28' W 123°06'9 8.4
2014-Aug-26 16:30N 48°37' W 123°10'0 0.0
2014-Aug-26 15:12N 48°37' W 123°10'  
2014-Aug-23 22:33N 48°37' W 123°10'1 1.2
2014-Aug-23 21:33N 48°35' W 123°10'1 1.4
2014-Aug-23 20:32N 48°37' W 123°09'15 0.3
2014-Aug-21 18:27N 48°43' W 123°30'6 6.2
2014-Aug-21 17:26N 48°49' W 123°34'  

Dump ship's entire track history